KE9LZ-9 Weather Reports


time (UTC)temp
F
wind
direction
speed
knots
gust
knots
rain 1hr
in
rain 24hr
in
rain mn
in
humidity
%
barometer
mb
20260905165004 75 122 1.7 4.3 0.00 0.04 0.00 72 1019.1
20260905164004 75 118 1.7 6.1 0.00 0.04 0.00 72 1019.2
20260905163004 75 351 1.7 2.6 0.00 0.04 0.00 74 1019.3
20260905162004 75 180 1.7 4.3 0.00 0.04 0.00 73 1019.1
20260905161004 76 92 0.9 4.3 0.00 0.04 0.00 72 1019.2
20260905160004 74 359 1.7 7.0 0.00 0.04 0.00 75 1019.2
20260905155004 74 163 1.7 4.3 0.00 0.04 0.00 76 1019.0
20260905154004 74 0 1.7 2.6 0.00 0.04 0.00 76 1018.9
20260905153004 73 337 0.9 4.3 0.00 0.04 0.00 77 1018.9
20260905152004 73 23 0.9 2.6 0.00 0.04 0.00 77 1018.9
20260905151003 72 23 1.7 4.3 0.00 0.04 0.00 81 1018.7
20260905150004 72 333 1.7 2.6 0.00 0.04 0.00 83 1018.5
20260905144004 70 58 0.9 2.6 0.00 0.04 0.00 84 1018.8
20260905143004 68 46 1.7 2.6 0.00 0.04 0.00 87 1018.8
20260905142004 67 19 0.9 1.7 0.00 0.04 0.00 89 1019.0
20260905140004 69 8 1.7 2.6 0.00 0.04 0.00 86 1019.0
20260905135004 68 26 0.9 1.7 0.00 0.04 0.00 86 1019.0
20260905134004 69 3 0.9 2.6 0.00 0.04 0.00 86 1018.8
20260905133004 68 18 0.9 1.7 0.00 0.04 0.00 87 1018.5
20260905132004 66 349 0.9 1.7 0.00 0.04 0.00 90 1018.7
20260905131004 67 342 0.9 1.7 0.00 0.04 0.00 90 1018.4
20260905125004 63 20 0.9 2.6 0.00 0.04 0.00 99 1018.1
20260905124004 61 79 1.7 2.6 0.00 0.04 0.00 99 1018.0
20260905123004 61 292 0.9 2.6 0.00 0.04 0.00 99 1017.9
20260905122003 61 354 0.9 4.3 0.00 0.04 0.00 99 1017.7
20260905121004 61 72 1.7 4.3 0.00 0.04 0.00 99 1017.6
20260905120003 61 43 0.9 2.6 0.00 0.04 0.00 99 1017.6
20260905115003 61 41 1.7 2.6 0.00 0.04 0.00 99 1017.5
20260905114003 61 38 0.9 2.6 0.00 0.04 0.00 99 1017.5
20260905113004 61 18 0.9 2.6 0.00 0.04 0.00 99 1017.3
20260905112004 61 47 0.9 2.6 0.00 0.04 0.00 99 1017.1
20260905111004 61 25 0.9 2.6 0.00 0.04 0.00 99 1017.4
20260905110004 61 20 0.9 1.7 0.00 0.04 0.00 99 1017.2
20260905105003 61 11 1.7 4.3 0.00 0.04 0.00 99 1017.2
20260905104004 61 1 0.9 2.6 0.00 0.04 0.00 99 1017.1
20260905101004 62 0 0.9 1.7 0.00 0.04 0.00 99 1017.0
20260905100003 62 4 0.9 1.7 0.00 0.04 0.00 99 1016.9
20260905095004 62 337 0.9 1.7 0.00 0.04 0.00 99 1016.9
20260905094004 62 27 0.9 1.7 0.00 0.04 0.00 99 1016.7
20260905093004 62 22 0.9 1.7 0.00 0.04 0.00 99 1016.8
20260905092003 62 354 0.9 1.7 0.00 0.04 0.00 99 1016.7
20260905091004 62 29 0.9 1.7 0.00 0.04 0.00 99 1016.9
20260905090004 62 3 0.9 1.7 0.00 0.04 0.00 99 1017.0
20260905085005 62 1 0.9 1.7 0.00 0.04 0.00 99 1017.1
20260905084004 62 23 0.9 1.7 0.00 0.04 0.00 99 1016.9
20260905083005 62 27 0.0 1.7 0.00 0.04 0.00 99 1017.0
20260905082005 62 28 0.9 1.7 0.00 0.04 0.00 99 1016.8
20260905081004 62 4 0.9 1.7 0.00 0.04 0.00 99 1016.8
20260905080004 62 351 0.9 1.7 0.00 0.04 0.00 99 1016.8
20260905075004 62 18 0.9 1.7 0.00 0.04 0.00 99 1016.9
20260905074004 63 327 0.9 1.7 0.00 0.04 0.00 99 1016.9
20260905073004 63 2 0.0 0.9 0.00 0.04 0.00 99 1016.8
20260905072004 63 358 0.9 0.9 0.00 0.04 0.00 99 1016.8
20260905071004 63 341 0.9 1.7 0.00 0.04 0.00 99 1016.8
20260905070003 63 352 0.9 1.7 0.00 0.04 0.00 99 1016.6
20260905065004 63 355 0.9 1.7 0.00 0.04 0.00 99 1016.6
20260905064004 63 25 0.9 0.9 0.00 0.05 0.00 99 1016.6
20260905063004 63 10 0.9 0.9 0.00 0.06 0.00 99 1016.6
20260905062004 63 0 0.0 1.7 0.00 0.06 0.00 99 1016.7
20260905061004 64 359 0.9 1.7 0.00 0.06 0.00 99 1016.5
20260905060004 64 23 0.9 1.7 0.00 0.06 0.00 99 1016.7
20260905055004 64 7 0.9 1.7 0.00 0.06 0.00 99 1016.7
20260905054004 64 319 0.9 0.9 0.00 0.06 0.00 99 1016.7
20260905053004 64 20 0.9 0.9 0.00 0.06 0.00 99 1016.5
20260905051004 64 326 0.0 1.7 0.00 0.06 0.00 99 1016.5
20260905050004 64 333 0.0 0.9 0.00 0.06 0.00 99 1016.4
20260905045004 64 33 0.0 0.9 0.00 0.06 0.06 99 1016.5
20260905044003 64 16 0.9 0.9 0.00 0.06 0.06 99 1016.5
20260905043004 64 31 0.9 1.7 0.00 0.06 0.06 99 1016.5
20260905041003 65 351 0.9 0.9 0.00 0.06 0.06 99 1016.4
20260905040004 64 5 0.0 0.9 0.00 0.06 0.06 99 1016.4
20260905034004 65 356 0.9 1.7 0.00 0.06 0.06 99 1016.6
20260905033004 65 319 0.0 1.7 0.00 0.06 0.06 99 1016.4
20260905032003 65 5 0.9 1.7 0.00 0.06 0.06 99 1016.4
20260905031004 65 11 0.9 1.7 0.00 0.06 0.06 99 1016.5
20260905030004 65 0 0.9 2.6 0.00 0.06 0.06 99 1016.2
20260905025004 65 11 0.9 1.7 0.00 0.06 0.06 99 1016.4
20260905024004 65 32 0.9 1.7 0.00 0.06 0.06 99 1016.3
20260905023003 65 42 0.9 1.7 0.00 0.06 0.06 99 1016.3
20260905022003 65 77 0.0 1.7 0.00 0.06 0.06 99 1016.1
20260905021004 65 15 0.9 1.7 0.00 0.06 0.06 99 1016.3
20260905020004 65 4 0.9 1.7 0.00 0.06 0.06 99 1016.2
20260905015003 65 7 0.9 1.7 0.00 0.06 0.06 99 1016.1
20260905014004 65 3 0.9 1.7 0.00 0.06 0.06 99 1016.3
20260905013003 65 8 0.9 1.7 0.00 0.06 0.06 99 1016.4
20260905011003 65 43 0.9 1.7 0.00 0.06 0.06 99 1016.3
20260905010004 65 15 0.9 1.7 0.00 0.06 0.06 99 1016.1
20260905005004 65 25 0.9 2.6 0.00 0.06 0.06 99 1015.8
20260905003004 65 19 0.9 1.7 0.00 0.06 0.06 99 1015.8
20260905002004 65 79 0.9 1.7 0.01 0.06 0.06 99 1015.9
20260905001003 65 31 0.9 1.7 0.02 0.06 0.06 99 1016.1
20260904234004 66 353 0.9 1.7 0.04 0.06 0.06 99 1015.9
20260904233004 66 17 0.9 1.7 0.03 0.06 0.06 99 1015.6
20260904232003 66 14 0.9 1.7 0.03 0.06 0.06 99 1015.6
20260904231004 66 340 0.9 1.7 0.01 0.04 0.04 99 1015.7
20260904225003 67 14 0.9 1.7 0.00 0.03 0.03 99 1015.3
20260904224003 67 36 0.0 1.7 0.00 0.03 0.03 99 1015.2
20260904223003 67 5 1.7 2.6 0.00 0.03 0.03 99 1015.2
20260904222004 67 48 0.9 1.7 0.00 0.03 0.03 99 1015.1
20260904221004 67 0 0.9 1.7 0.00 0.03 0.03 99 1014.9
20260904214005 68 9 0.9 2.6 0.00 0.03 0.03 99 1014.5
20260904213004 68 35 0.9 2.6 0.00 0.03 0.03 99 1014.4
20260904211003 68 24 0.9 1.7 0.00 0.03 0.03 99 1014.2
20260904210004 68 27 1.7 2.6 0.00 0.03 0.03 99 1014.4
20260904205004 68 17 0.9 2.6 0.00 0.03 0.03 99 1014.5
20260904203004 68 13 0.9 1.7 0.00 0.03 0.03 99 1014.7
20260904201004 68 80 0.9 2.6 0.00 0.03 0.03 99 1014.7
20260904200004 69 27 0.9 1.7 0.00 0.03 0.03 99 1014.9
20260904195004 69 14 0.9 1.7 0.00 0.03 0.03 99 1014.8
20260904194004 69 355 0.9 1.7 0.00 0.03 0.03 99 1014.8
20260904193004 69 9 0.9 1.7 0.00 0.03 0.03 99 1014.9
20260904192004 69 359 0.9 1.7 0.00 0.03 0.03 99 1014.9
20260904191004 70 13 0.0 1.7 0.00 0.03 0.03 99 1014.8
20260904190004 70 12 0.0 1.7 0.00 0.03 0.03 99 1014.7
20260904185004 71 13 0.0 1.7 0.00 0.03 0.03 99 1014.7
20260904184004 71 13 0.9 1.7 0.00 0.03 0.03 99 1014.7
20260904183004 72 350 0.0 1.7 0.00 0.03 0.03 98 1014.3
20260904182004 72 1 0.9 1.7 0.00 0.03 0.03 97 1014.4
20260904181004 72 357 0.9 1.7 0.00 0.03 0.03 97 1014.3
20260904180003 72 9 1.7 1.7 0.00 0.03 0.03 97 1014.4
20260904175003 72 187 0.0 1.7 0.00 0.03 0.03 97 1014.3
20260904174004 72 160 0.9 1.7 0.00 0.03 0.03 97 1014.5
20260904173004 71 0 0.9 1.7 0.00 0.03 0.03 98 1014.4
20260904172004 71 346 0.9 1.7 0.00 0.03 0.03 98 1014.3
20260904171004 71 345 0.9 1.7 0.00 0.03 0.03 98 1014.4
20260904170004 71 339 1.7 1.7 0.00 0.04 0.03 99 1014.4